| time (UTC) | temp F | wind direction | speed MPH | gust MPH | rain 1hr in | rain 24hr in | rain mn in | humidity % | barometer mb |
| 20260505121655 | 61 | 120 | 3.0 | 0.0 | 0.00 | 0.00 | 0.00 | 44 | |
| 20260505111655 | 64 | 340 | 3.0 | 10.0 | 0.00 | 0.00 | 0.00 | 39 | |
| 20260505101655 | 63 | 330 | 6.0 | 13.0 | 0.00 | 0.00 | 0.00 | 39 | |
| 20260505091655 | 61 | 340 | 7.0 | 0.0 | 0.00 | 0.00 | 0.00 | 41 | |
| 20260505081656 | 59 | 330 | 5.0 | 0.0 | 0.00 | 0.00 | 0.00 | 47 | |
| 20260505071654 | 57 | 320 | 2.0 | 0.0 | 0.00 | 0.00 | 0.00 | 54 | |
| 20260505061656 | 55 | 330 | 3.0 | 0.0 | 0.00 | 0.00 | 0.00 | 54 | |
| 20260505051655 | 54 | 310 | 2.0 | 0.0 | 0.00 | 0.00 | 0.00 | 54 | |
| 20260505041655 | 52 | 210 | 13.0 | 0.0 | 0.00 | 0.00 | 0.00 | 57 | |
| 20260505031655 | 54 | 190 | 8.0 | 0.0 | 0.00 | 0.00 | 0.00 | 54 | |
| 20260505021655 | 52 | 140 | 7.0 | 0.0 | 0.00 | 0.00 | 0.00 | 57 | |
| 20260505011656 | 52 | 230 | 9.0 | 0.0 | 0.00 | 0.00 | 0.00 | 57 | |
| 20260505001655 | 54 | 150 | 12.0 | 0.0 | 0.00 | 0.00 | 0.00 | 54 | |
| 20260504231655 | 54 | 150 | 13.0 | 0.0 | 0.00 | 0.00 | 0.00 | 50 | |
| 20260504221655 | 54 | 130 | 9.0 | 0.0 | 0.00 | 0.00 | 0.00 | 50 | |
| 20260504211654 | 54 | 80 | 10.0 | 0.0 | 0.00 | 0.00 | 0.00 | 62 | |
| 20260504201654 | 55 | 70 | 7.0 | 0.0 | 0.00 | 0.00 | 0.00 | 58 | |
| 20260504191655 | 55 | 50 | 7.0 | 0.0 | 0.00 | 0.00 | 0.00 | 58 | |
| 20260504181655 | 55 | 30 | 6.0 | 0.0 | 0.00 | 0.00 | 0.00 | 58 | |
| 20260504171656 | 57 | 20 | 9.0 | 0.0 | 0.00 | 0.00 | 0.00 | 50 |